• In Romania
  • List of Countries
  • For 7 days
  • Water Temperature
  • Satellite Maps
  • Weather Map
  • Weather Widgets
  • user-avatar
    Login

    Hourly Weather Kamarang

    Today, 28 May, Monday

    Time Temperature Precipitation Wind Pressure Humidity
    00:00 +23°C° 0.1 mm 1 mps 714 mmHg 98%
    01:00 +23°C° 0.1 mm 1 mps 714 mmHg 98%
    02:00 +22°C° 0.1 mm 1 mps 714 mmHg 99%
    03:00 +22°C° 0.1 mm 1 mps 714 mmHg 99%
    04:00 +22°C° 0.1 mm 1 mps 713 mmHg 99%
    05:00 +22°C° 0.1 mm 1 mps 713 mmHg 99%
    06:00 +23°C° 0.2 mm 1 mps 714 mmHg 97%
    07:00 +23°C° 0.2 mm 1 mps 714 mmHg 96%
    08:00 +23°C° 0.2 mm 1 mps 715 mmHg 95%
    09:00 +25°C° 0.2 mm 1 mps 715 mmHg 87%
    10:00 +26°C° 0.2 mm 1 mps 715 mmHg 80%
    11:00 +28°C° 0.2 mm 1 mps 715 mmHg 73%
    12:00 +28°C° 0.5 mm 2 mps 715 mmHg 71%
    13:00 +29°C° 0.5 mm 2 mps 714 mmHg 70%
    14:00 +29°C° 0.5 mm 2 mps 713 mmHg 69%
    15:00 +29°C° 0.5 mm 2 mps 713 mmHg 72%
    16:00 +28°C° 0.5 mm 1 mps 713 mmHg 76%
    17:00 +27°C° 0.5 mm 1 mps 712 mmHg 80%
    18:00 +26°C° 0.1 mm 1 mps 712 mmHg 85%
    19:00 +24°C° 0.1 mm 1 mps 713 mmHg 90%
    20:00 +23°C° 0.1 mm 1 mps 713 mmHg 95%
    21:00 +23°C° 0 mm 1 mps 714 mmHg 95%
    22:00 +22°C° 0 mm 1 mps 714 mmHg 96%
    23:00 +22°C° 0 mm 1 mps 714 mmHg 97%

    Tomorrow, 29 May, Tuesday

    Time Temperature Precipitation Wind Pressure Humidity
    00:00 +22°C° 0 mm 1 mps 714 mmHg 97%
    01:00 +22°C° 0 mm 1 mps 714 mmHg 97%
    02:00 +22°C° 0 mm 1 mps 713 mmHg 97%
    03:00 +20°C° 0.1 mm 0 mps 713 mmHg 97%
    04:00 +20°C° 0.1 mm 0 mps 713 mmHg 97%
    05:00 +20°C° 0.1 mm 0 mps 713 mmHg 97%
    06:00 +23°C° 0.1 mm 1 mps 713 mmHg 93%
    07:00 +23°C° 0.1 mm 1 mps 714 mmHg 90%
    08:00 +24°C° 0.1 mm 1 mps 715 mmHg 87%
    09:00 +26°C° 0.1 mm 1 mps 715 mmHg 79%
    10:00 +27°C° 0.1 mm 1 mps 715 mmHg 72%
    11:00 +28°C° 0.1 mm 2 mps 715 mmHg 64%
    12:00 +29°C° 0.1 mm 2 mps 715 mmHg 61%
    13:00 +30°C° 0.1 mm 2 mps 714 mmHg 57%
    14:00 +31°C° 0.1 mm 2 mps 713 mmHg 54%
    15:00 +30°C° 0.1 mm 2 mps 713 mmHg 58%
    16:00 +29°C° 0.1 mm 2 mps 712 mmHg 62%
    17:00 +28°C° 0.1 mm 2 mps 712 mmHg 66%
    18:00 +27°C° 0.1 mm 1 mps 712 mmHg 75%
    19:00 +25°C° 0.1 mm 1 mps 713 mmHg 85%
    20:00 +23°C° 0.1 mm 1 mps 713 mmHg 94%
    21:00 +23°C° 0 mm 1 mps 714 mmHg 95%
    22:00 +23°C° 0 mm 1 mps 714 mmHg 96%
    23:00 +22°C° 0 mm 1 mps 714 mmHg 97%

    Day after tomorrow, 30 May, Wednesday

    Time Temperature Precipitation Wind Pressure Humidity
    00:00 +20°C° 0 mm 0 mps 714 mmHg 97%
    01:00 +20°C° 0 mm 0 mps 713 mmHg 97%
    02:00 +20°C° 0 mm 0 mps 713 mmHg 98%
    03:00 +20°C° 0 mm 0 mps 713 mmHg 98%
    04:00 +19°C° 0 mm 0 mps 713 mmHg 98%
    05:00 +19°C° 0 mm 0 mps 713 mmHg 98%
    06:00 +20°C° 0 mm 0 mps 713 mmHg 93%
    07:00 +23°C° 0 mm 1 mps 714 mmHg 88%
    08:00 +24°C° 0 mm 1 mps 714 mmHg 83%
    09:00 +26°C° 0 mm 1 mps 714 mmHg 76%
    10:00 +27°C° 0 mm 1 mps 715 mmHg 68%
    11:00 +29°C° 0 mm 1 mps 715 mmHg 61%
    12:00 +30°C° 0 mm 1 mps 714 mmHg 57%
    13:00 +30°C° 0 mm 2 mps 713 mmHg 54%
    14:00 +31°C° 0 mm 2 mps 712 mmHg 50%
    15:00 +31°C° 0.1 mm 2 mps 712 mmHg 55%
    16:00 +30°C° 0.1 mm 2 mps 712 mmHg 60%
    17:00 +29°C° 0.1 mm 2 mps 711 mmHg 65%
    18:00 +27°C° 0.2 mm 1 mps 712 mmHg 75%
    19:00 +25°C° 0.2 mm 1 mps 712 mmHg 84%
    20:00 +23°C° 0.2 mm 1 mps 712 mmHg 94%
    21:00 +23°C° 0 mm 1 mps 713 mmHg 95%
    22:00 +21°C° 0 mm 0 mps 713 mmHg 95%
    23:00 +20°C° 0 mm 0 mps 713 mmHg 96%

    31 May, Thursday

    Time Temperature Precipitation Wind Pressure Humidity
    00:00 +20°C° 0 mm 0 mps 713 mmHg 97%
    01:00 +20°C° 0 mm 0 mps 712 mmHg 97%
    02:00 +20°C° 0 mm 0 mps 712 mmHg 97%
    03:00 +20°C° 0 mm 0 mps 712 mmHg 97%
    04:00 +20°C° 0 mm 0 mps 712 mmHg 97%
    05:00 +20°C° 0 mm 0 mps 712 mmHg 97%
    06:00 +21°C° 0 mm 0 mps 713 mmHg 92%
    07:00 +22°C° 0 mm 0 mps 713 mmHg 86%
    08:00 +24°C° 0 mm 0 mps 714 mmHg 80%
    09:00 +27°C° 0.1 mm 1 mps 714 mmHg 74%
    10:00 +28°C° 0.1 mm 1 mps 714 mmHg 68%
    11:00 +30°C° 0.1 mm 1 mps 714 mmHg 61%
    12:00 +30°C° 0.5 mm 2 mps 713 mmHg 63%
    13:00 +30°C° 0.5 mm 2 mps 712 mmHg 65%
    14:00 +30°C° 0.5 mm 2 mps 711 mmHg 67%
    15:00 +29°C° 1 mm 2 mps 711 mmHg 75%
    16:00 +28°C° 1 mm 2 mps 711 mmHg 83%
    17:00 +26°C° 1 mm 2 mps 711 mmHg 91%
    18:00 +25°C° 0.7 mm 1 mps 712 mmHg 94%
    19:00 +24°C° 0.7 mm 1 mps 712 mmHg 96%
    20:00 +23°C° 0.7 mm 1 mps 713 mmHg 98%
    21:00 +23°C° 0.1 mm 1 mps 713 mmHg 98%
    22:00 +23°C° 0.1 mm 1 mps 713 mmHg 98%
    23:00 +23°C° 0.1 mm 1 mps 713 mmHg 98%

    1 June, Friday

    Time Temperature Precipitation Wind Pressure Humidity
    00:00 +23°C° 0.1 mm 1 mps 713 mmHg 98%
    01:00 +21°C° 0.1 mm 0 mps 712 mmHg 98%
    02:00 +21°C° 0.1 mm 0 mps 712 mmHg 98%
    03:00 +20°C° 0 mm 0 mps 712 mmHg 98%
    04:00 +20°C° 0 mm 0 mps 712 mmHg 98%
    05:00 +20°C° 0 mm 0 mps 712 mmHg 98%
    06:00 +21°C° 0 mm 0 mps 713 mmHg 96%
    07:00 +21°C° 0 mm 0 mps 713 mmHg 94%
    08:00 +24°C° 0 mm 1 mps 714 mmHg 91%
    09:00 +25°C° 0.1 mm 1 mps 714 mmHg 85%
    10:00 +26°C° 0.1 mm 1 mps 714 mmHg 79%
    11:00 +28°C° 0.1 mm 1 mps 714 mmHg 73%
    12:00 +28°C° 0.5 mm 1 mps 713 mmHg 75%
    13:00 +28°C° 0.5 mm 2 mps 712 mmHg 76%
    14:00 +28°C° 0.5 mm 2 mps 712 mmHg 78%
    15:00 +27°C° 0.7 mm 2 mps 712 mmHg 83%
    16:00 +27°C° 0.7 mm 2 mps 712 mmHg 88%
    17:00 +26°C° 0.7 mm 1 mps 711 mmHg 93%
    18:00 +25°C° 0.3 mm 1 mps 712 mmHg 95%
    19:00 +24°C° 0.3 mm 1 mps 713 mmHg 97%
    20:00 +23°C° 0.3 mm 1 mps 713 mmHg 99%
    21:00 +23°C° 0.3 mm 1 mps 714 mmHg 99%
    22:00 +23°C° 0.3 mm 1 mps 714 mmHg 99%
    23:00 +23°C° 0.3 mm 1 mps 714 mmHg 98%

    2 June, Saturday

    Time Temperature Precipitation Wind Pressure Humidity
    00:00 +23°C° 0.2 mm 1 mps 713 mmHg 98%
    01:00 +23°C° 0.2 mm 1 mps 713 mmHg 98%
    02:00 +23°C° 0.2 mm 1 mps 712 mmHg 99%
    03:00 +22°C° 0.2 mm 1 mps 712 mmHg 98%
    04:00 +22°C° 0.2 mm 1 mps 713 mmHg 98%
    05:00 +22°C° 0.2 mm 1 mps 713 mmHg 98%
    06:00 +23°C° 0.2 mm 1 mps 713 mmHg 96%
    07:00 +23°C° 0.2 mm 1 mps 714 mmHg 93%
    08:00 +24°C° 0.2 mm 1 mps 714 mmHg 90%
    09:00 +26°C° 0.1 mm 1 mps 714 mmHg 83%
    10:00 +27°C° 0.1 mm 1 mps 714 mmHg 76%
    11:00 +28°C° 0.1 mm 2 mps 714 mmHg 69%
    12:00 +28°C° 0.7 mm 2 mps 713 mmHg 73%
    13:00 +28°C° 0.7 mm 2 mps 713 mmHg 77%
    14:00 +28°C° 0.7 mm 2 mps 712 mmHg 81%
    15:00 +27°C° 0.8 mm 2 mps 712 mmHg 86%
    16:00 +26°C° 0.8 mm 2 mps 712 mmHg 90%
    17:00 +26°C° 0.8 mm 1 mps 712 mmHg 94%
    18:00 +25°C° 0.4 mm 1 mps 712 mmHg 96%
    19:00 +24°C° 0.4 mm 1 mps 713 mmHg 97%
    20:00 +23°C° 0.4 mm 1 mps 713 mmHg 99%
    21:00 +23°C° 0.1 mm 1 mps 714 mmHg 99%
    22:00 +23°C° 0.1 mm 1 mps 714 mmHg 99%
    23:00 +23°C° 0.1 mm 1 mps 714 mmHg 99%
    Show more